• In Deutschland
  • Länderverzeichnis
  • Für 7 Tage
  • Wassertemperatur
  • Satellitenkarten
  • Wetterkarte
  • Widgets
  • user-avatar
    Anmelden

    Stündliche Wetter Victoria

    Heute, 18 November, Samstag

    Zeit Temperatur Niederschläge Wind Luftdruck Luftfeuchtigkeit
    00:00 +16°C° 0 mm 1 m/S 749 mmHg 71%
    01:00 +16°C° 0 mm 1 m/S 749 mmHg 73%
    02:00 +15°C° 0 mm 2 m/S 749 mmHg 77%
    03:00 +15°C° 0 mm 2 m/S 749 mmHg 82%
    04:00 +14°C° 0 mm 2 m/S 749 mmHg 87%
    05:00 +16°C° 0 mm 3 m/S 749 mmHg 84%
    06:00 +17°C° 0 mm 4 m/S 750 mmHg 81%
    07:00 +17°C° 0 mm 5 m/S 750 mmHg 77%
    08:00 +21°C° 0 mm 5 m/S 750 mmHg 71%
    09:00 +23°C° 0 mm 5 m/S 750 mmHg 64%
    10:00 +26°C° 0 mm 5 m/S 750 mmHg 57%
    11:00 +27°C° 0,1 mm 4 m/S 750 mmHg 53%
    12:00 +28°C° 0,1 mm 4 m/S 749 mmHg 49%
    13:00 +29°C° 0,1 mm 3 m/S 749 mmHg 45%
    14:00 +28°C° 0,4 mm 4 m/S 749 mmHg 51%
    15:00 +26°C° 0,4 mm 4 m/S 749 mmHg 57%
    16:00 +25°C° 0,4 mm 4 m/S 749 mmHg 62%
    17:00 +23°C° 0,7 mm 4 m/S 749 mmHg 70%
    18:00 +21°C° 0,7 mm 3 m/S 750 mmHg 78%
    19:00 +19°C° 0,7 mm 3 m/S 750 mmHg 87%
    20:00 +18°C° 0 mm 3 m/S 750 mmHg 88%
    21:00 +18°C° 0 mm 3 m/S 751 mmHg 90%
    22:00 +17°C° 0 mm 3 m/S 751 mmHg 91%
    23:00 +17°C° 0 mm 3 m/S 751 mmHg 91%

    Morgen, 19 November, Sonntag

    Zeit Temperatur Niederschläge Wind Luftdruck Luftfeuchtigkeit
    00:00 +16°C° 0 mm 2 m/S 752 mmHg 91%
    01:00 +16°C° 0 mm 2 m/S 752 mmHg 91%
    02:00 +16°C° 0 mm 3 m/S 752 mmHg 91%
    03:00 +16°C° 0 mm 3 m/S 752 mmHg 90%
    04:00 +14°C° 0 mm 3 m/S 752 mmHg 89%
    05:00 +15°C° 0 mm 4 m/S 753 mmHg 84%
    06:00 +16°C° 0 mm 5 m/S 753 mmHg 79%
    07:00 +19°C° 0 mm 5 m/S 753 mmHg 74%
    08:00 +20°C° 0 mm 6 m/S 753 mmHg 67%
    09:00 +22°C° 0 mm 6 m/S 753 mmHg 60%
    10:00 +24°C° 0 mm 6 m/S 753 mmHg 53%
    11:00 +26°C° 0 mm 5 m/S 753 mmHg 50%
    12:00 +28°C° 0 mm 5 m/S 752 mmHg 47%
    13:00 +29°C° 0 mm 5 m/S 752 mmHg 44%
    14:00 +29°C° 0 mm 4 m/S 752 mmHg 43%
    15:00 +29°C° 0 mm 4 m/S 752 mmHg 42%
    16:00 +29°C° 0 mm 4 m/S 751 mmHg 42%
    17:00 +28°C° 0 mm 3 m/S 752 mmHg 47%
    18:00 +26°C° 0 mm 2 m/S 752 mmHg 52%
    19:00 +24°C° 0 mm 1 m/S 752 mmHg 57%
    20:00 +23°C° 0 mm 1 m/S 752 mmHg 58%
    21:00 +21°C° 0 mm 2 m/S 753 mmHg 60%
    22:00 +20°C° 0 mm 2 m/S 753 mmHg 61%
    23:00 +20°C° 0 mm 2 m/S 753 mmHg 63%

    übermorgen, 20 November, Montag

    Zeit Temperatur Niederschläge Wind Luftdruck Luftfeuchtigkeit
    00:00 +19°C° 0 mm 3 m/S 753 mmHg 65%
    01:00 +19°C° 0 mm 3 m/S 753 mmHg 67%
    02:00 +18°C° 0 mm 3 m/S 754 mmHg 70%
    03:00 +17°C° 0 mm 3 m/S 754 mmHg 72%
    04:00 +17°C° 0 mm 3 m/S 754 mmHg 75%
    05:00 +18°C° 0 mm 4 m/S 755 mmHg 73%
    06:00 +18°C° 0 mm 4 m/S 755 mmHg 70%
    07:00 +19°C° 0 mm 4 m/S 756 mmHg 68%
    08:00 +21°C° 0 mm 4 m/S 755 mmHg 62%
    09:00 +23°C° 0 mm 4 m/S 755 mmHg 55%
    10:00 +26°C° 0 mm 3 m/S 755 mmHg 49%
    11:00 +27°C° 0 mm 3 m/S 755 mmHg 46%
    12:00 +28°C° 0 mm 3 m/S 754 mmHg 42%
    13:00 +30°C° 0 mm 3 m/S 754 mmHg 38%
    14:00 +30°C° 0 mm 3 m/S 753 mmHg 37%
    15:00 +30°C° 0 mm 3 m/S 753 mmHg 36%
    16:00 +31°C° 0 mm 3 m/S 752 mmHg 35%
    17:00 +29°C° 0 mm 2 m/S 752 mmHg 41%
    18:00 +27°C° 0 mm 2 m/S 752 mmHg 46%
    19:00 +25°C° 0 mm 1 m/S 753 mmHg 52%
    20:00 +24°C° 0 mm 2 m/S 753 mmHg 53%
    21:00 +23°C° 0 mm 2 m/S 753 mmHg 54%
    22:00 +21°C° 0 mm 2 m/S 754 mmHg 55%
    23:00 +20°C° 0 mm 2 m/S 754 mmHg 58%

    21 November, Dienstag

    Zeit Temperatur Niederschläge Wind Luftdruck Luftfeuchtigkeit
    00:00 +19°C° 0 mm 3 m/S 754 mmHg 62%
    01:00 +19°C° 0 mm 3 m/S 753 mmHg 65%
    02:00 +18°C° 0 mm 3 m/S 753 mmHg 68%
    03:00 +17°C° 0 mm 3 m/S 754 mmHg 72%
    04:00 +17°C° 0 mm 3 m/S 754 mmHg 75%
    05:00 +18°C° 0 mm 4 m/S 754 mmHg 73%
    06:00 +19°C° 0 mm 4 m/S 754 mmHg 70%
    07:00 +20°C° 0 mm 5 m/S 754 mmHg 68%
    08:00 +22°C° 0 mm 4 m/S 754 mmHg 61%
    09:00 +25°C° 0 mm 4 m/S 754 mmHg 55%
    10:00 +27°C° 0 mm 4 m/S 754 mmHg 49%
    11:00 +28°C° 0 mm 4 m/S 754 mmHg 45%
    12:00 +29°C° 0 mm 3 m/S 753 mmHg 41%
    13:00 +31°C° 0 mm 3 m/S 752 mmHg 36%
    14:00 +31°C° 0 mm 3 m/S 752 mmHg 35%
    15:00 +31°C° 0 mm 2 m/S 751 mmHg 34%
    16:00 +31°C° 0 mm 2 m/S 751 mmHg 32%
    17:00 +30°C° 0 mm 2 m/S 751 mmHg 38%
    18:00 +28°C° 0 mm 2 m/S 751 mmHg 43%
    19:00 +26°C° 0 mm 2 m/S 751 mmHg 49%
    20:00 +25°C° 0 mm 2 m/S 751 mmHg 51%
    21:00 +24°C° 0 mm 2 m/S 751 mmHg 53%
    22:00 +23°C° 0 mm 2 m/S 752 mmHg 56%
    23:00 +21°C° 0 mm 2 m/S 751 mmHg 58%

    22 November, Mittwoch

    Zeit Temperatur Niederschläge Wind Luftdruck Luftfeuchtigkeit
    00:00 +21°C° 0 mm 3 m/S 751 mmHg 61%
    01:00 +20°C° 0 mm 3 m/S 751 mmHg 64%
    02:00 +19°C° 0 mm 3 m/S 751 mmHg 65%
    03:00 +18°C° 0 mm 3 m/S 751 mmHg 66%
    04:00 +18°C° 0 mm 3 m/S 751 mmHg 68%
    05:00 +18°C° 0 mm 4 m/S 751 mmHg 65%
    06:00 +19°C° 0 mm 4 m/S 752 mmHg 63%
    07:00 +20°C° 0 mm 5 m/S 752 mmHg 61%
    08:00 +22°C° 0 mm 4 m/S 752 mmHg 55%
    09:00 +25°C° 0 mm 4 m/S 752 mmHg 50%
    10:00 +27°C° 0 mm 4 m/S 752 mmHg 44%
    11:00 +28°C° 0 mm 3 m/S 751 mmHg 40%
    12:00 +30°C° 0 mm 2 m/S 750 mmHg 37%
    13:00 +31°C° 0 mm 2 m/S 749 mmHg 33%
    14:00 +31°C° 0 mm 1 m/S 749 mmHg 32%
    15:00 +32°C° 0 mm 1 m/S 749 mmHg 31%
    16:00 +32°C° 0 mm 1 m/S 748 mmHg 29%
    17:00 +30°C° 0 mm 1 m/S 748 mmHg 34%
    18:00 +28°C° 0 mm 1 m/S 749 mmHg 39%
    19:00 +26°C° 0 mm 1 m/S 749 mmHg 44%
    20:00 +25°C° 0,2 mm 1 m/S 749 mmHg 48%
    21:00 +24°C° 0,2 mm 2 m/S 749 mmHg 52%
    22:00 +21°C° 0,2 mm 2 m/S 749 mmHg 57%
    23:00 +21°C° 0 mm 2 m/S 749 mmHg 60%

    23 November, Donnerstag

    Zeit Temperatur Niederschläge Wind Luftdruck Luftfeuchtigkeit
    00:00 +20°C° 0 mm 2 m/S 749 mmHg 63%
    01:00 +19°C° 0 mm 2 m/S 749 mmHg 66%
    02:00 +19°C° 0 mm 2 m/S 749 mmHg 68%
    03:00 +18°C° 0 mm 2 m/S 749 mmHg 70%
    04:00 +18°C° 0 mm 2 m/S 749 mmHg 72%
    05:00 +19°C° 0 mm 2 m/S 749 mmHg 70%
    06:00 +20°C° 0 mm 3 m/S 750 mmHg 67%
    07:00 +21°C° 0 mm 3 m/S 750 mmHg 65%
    08:00 +24°C° 0 mm 3 m/S 750 mmHg 59%
    09:00 +25°C° 0 mm 3 m/S 750 mmHg 53%
    10:00 +27°C° 0 mm 3 m/S 750 mmHg 46%
    11:00 +29°C° 0 mm 2 m/S 749 mmHg 41%
    12:00 +31°C° 0 mm 2 m/S 749 mmHg 35%
    13:00 +33°C° 0 mm 1 m/S 748 mmHg 29%
    14:00 +33°C° 0 mm 1 m/S 748 mmHg 29%
    15:00 +33°C° 0 mm 1 m/S 748 mmHg 28%
    16:00 +33°C° 0 mm 1 m/S 748 mmHg 27%
    17:00 +30°C° 0,3 mm 2 m/S 748 mmHg 37%
    18:00 +27°C° 0,3 mm 4 m/S 748 mmHg 47%
    19:00 +25°C° 0,3 mm 5 m/S 749 mmHg 57%
    20:00 +22°C° 0,5 mm 5 m/S 749 mmHg 65%
    21:00 +20°C° 0,5 mm 4 m/S 749 mmHg 74%
    22:00 +19°C° 0,5 mm 4 m/S 750 mmHg 82%
    23:00 +19°C° 0,1 mm 3 m/S 750 mmHg 82%
    Mehr zeigen